Time,TemperatureF,DewpointF,PressureIn,WindDirection,WindDirectionDegrees,WindSpeedMPH,WindSpeedGustMPH,Humidity,HourlyPrecipIn,Conditions,Clouds,dailyrainin,SoftwareType,DateUTC
2013-05-27 00:01:00,42.8,40.6,30.13,WNW,290,0.0,0.0,92,0.00,,,0.00,WeatherCatV1.15B25,2013-05-27 04:01:00,
2013-05-27 00:06:00,42.8,40.6,30.13,WNW,290,0.0,0.0,92,0.00,,,0.00,WeatherCatV1.15B25,2013-05-27 04:06:00,
2013-05-27 00:11:00,42.7,40.5,30.13,WNW,290,0.0,0.0,92,0.00,,,0.00,WeatherCatV1.15B25,2013-05-27 04:11:00,
2013-05-27 00:16:00,42.3,40.1,30.13,WNW,290,0.0,0.0,92,0.00,,,0.00,WeatherCatV1.15B25,2013-05-27 04:16:00,
2013-05-27 00:21:00,42.3,40.4,30.13,WNW,290,0.0,0.0,93,0.00,,,0.00,WeatherCatV1.15B25,2013-05-27 04:21:00,
2013-05-27 00:26:00,42.4,40.5,30.13,WNW,290,0.0,0.0,93,0.00,,,0.00,WeatherCatV1.15B25,2013-05-27 04:26:00,
2013-05-27 00:31:00,42.4,40.5,30.14,WNW,290,0.0,0.0,93,0.00,,,0.00,WeatherCatV1.15B25,2013-05-27 04:31:00,
2013-05-27 00:36:00,42.4,40.5,30.14,WNW,290,0.0,0.0,93,0.00,,,0.00,WeatherCatV1.15B25,2013-05-27 04:36:00,
2013-05-27 00:41:00,42.3,40.4,30.13,WNW,290,0.0,0.0,93,0.00,,,0.00,WeatherCatV1.15B25,2013-05-27 04:41:00,
2013-05-27 00:46:00,42.3,40.4,30.14,WNW,290,0.0,0.0,93,0.00,,,0.00,WeatherCatV1.15B25,2013-05-27 04:46:00,
2013-05-27 00:51:00,42.3,40.4,30.13,WNW,290,0.0,0.0,93,0.00,,,0.00,WeatherCatV1.15B25,2013-05-27 04:51:00,
2013-05-27 00:56:00,42.3,40.4,30.14,WNW,290,0.0,0.0,93,0.00,,,0.00,WeatherCatV1.15B25,2013-05-27 04:56:00,
2013-05-27 01:01:00,42.2,40.3,30.14,WNW,290,0.0,0.0,93,0.00,,,0.00,WeatherCatV1.15B25,2013-05-27 05:01:00,
2013-05-27 01:06:00,42.2,40.6,30.13,WNW,290,0.0,0.0,94,0.00,,,0.00,WeatherCatV1.15B25,2013-05-27 05:06:00,
2013-05-27 01:11:00,42.2,40.3,30.14,WNW,290,0.0,0.0,93,0.00,,,0.00,WeatherCatV1.15B25,2013-05-27 05:11:00,
2013-05-27 01:16:00,42.0,40.1,30.14,WNW,290,0.0,0.0,93,0.00,,,0.00,WeatherCatV1.15B25,2013-05-27 05:16:00,
2013-05-27 01:21:00,41.8,39.9,30.14,WNW,290,0.0,0.0,93,0.00,,,0.00,WeatherCatV1.15B25,2013-05-27 05:21:00,
2013-05-27 01:26:00,41.9,40.3,30.14,WNW,290,0.0,0.0,94,0.00,,,0.00,WeatherCatV1.15B25,2013-05-27 05:26:00,
2013-05-27 01:31:00,41.9,40.3,30.14,WNW,290,0.0,0.0,94,0.00,,,0.00,WeatherCatV1.15B25,2013-05-27 05:31:00,
2013-05-27 01:36:00,42.0,40.4,30.14,WNW,290,0.0,0.0,94,0.00,,,0.00,WeatherCatV1.15B25,2013-05-27 05:36:00,
2013-05-27 01:41:00,42.1,40.5,30.14,WNW,290,0.0,0.0,94,0.00,,,0.00,WeatherCatV1.15B25,2013-05-27 05:41:00,
2013-05-27 01:46:00,42.3,40.7,30.14,WNW,290,0.0,0.0,94,0.00,,,0.00,WeatherCatV1.15B25,2013-05-27 05:46:00,
2013-05-27 01:51:00,42.4,40.5,30.14,WNW,290,0.0,0.0,93,0.00,,,0.00,WeatherCatV1.15B25,2013-05-27 05:51:00,
2013-05-27 01:56:00,42.5,40.6,30.14,WNW,290,0.0,0.0,93,0.00,,,0.00,WeatherCatV1.15B25,2013-05-27 05:56:00,
2013-05-27 02:01:00,42.6,40.4,30.14,WNW,290,0.0,0.0,92,0.00,,,0.00,WeatherCatV1.15B25,2013-05-27 06:01:00,
2013-05-27 02:06:00,42.8,40.6,30.14,WNW,290,0.0,0.0,92,0.00,,,0.00,WeatherCatV1.15B25,2013-05-27 06:06:00,
2013-05-27 02:11:00,42.8,40.4,30.14,WNW,290,0.0,0.0,91,0.00,,,0.00,WeatherCatV1.15B25,2013-05-27 06:11:00,
2013-05-27 02:16:00,43.0,40.6,30.14,WNW,290,0.0,0.0,91,0.00,,,0.00,WeatherCatV1.15B25,2013-05-27 06:16:00,
2013-05-27 02:21:00,43.1,40.4,30.14,WNW,290,0.0,0.0,90,0.00,,,0.00,WeatherCatV1.15B25,2013-05-27 06:21:00,
2013-05-27 02:26:00,43.3,40.6,30.14,WNW,290,0.0,0.0,90,0.00,,,0.00,WeatherCatV1.15B25,2013-05-27 06:26:00,
2013-05-27 02:31:00,43.2,40.5,30.14,WNW,290,0.0,0.0,90,0.00,,,0.00,WeatherCatV1.15B25,2013-05-27 06:31:00,
2013-05-27 02:36:00,43.1,40.1,30.14,WNW,290,0.0,0.0,89,0.00,,,0.00,WeatherCatV1.15B25,2013-05-27 06:36:00,
2013-05-27 02:41:00,43.1,40.1,30.14,WNW,290,0.0,0.0,89,0.00,,,0.00,WeatherCatV1.15B25,2013-05-27 06:41:00,
2013-05-27 02:46:00,43.1,40.1,30.14,WNW,290,0.0,0.0,89,0.00,,,0.00,WeatherCatV1.15B25,2013-05-27 06:46:00,
2013-05-27 02:51:00,43.2,39.9,30.14,WNW,290,0.0,0.0,88,0.00,,,0.00,WeatherCatV1.15B25,2013-05-27 06:51:00,
2013-05-27 02:56:00,43.3,40.0,30.14,WNW,290,0.0,0.0,88,0.00,,,0.00,WeatherCatV1.15B25,2013-05-27 06:56:00,
2013-05-27 03:01:00,43.4,40.1,30.14,WNW,290,0.0,0.0,88,0.00,,,0.00,WeatherCatV1.15B25,2013-05-27 07:01:00,
2013-05-27 03:06:00,43.4,40.1,30.14,WNW,290,0.0,0.0,88,0.00,,,0.00,WeatherCatV1.15B25,2013-05-27 07:06:00,
2013-05-27 03:11:00,43.4,40.1,30.14,WNW,290,0.0,0.0,88,0.00,,,0.00,WeatherCatV1.15B25,2013-05-27 07:11:00,
2013-05-27 03:16:00,43.3,40.0,30.14,WNW,290,0.0,0.0,88,0.00,,,0.00,WeatherCatV1.15B25,2013-05-27 07:16:00,
2013-05-27 03:21:00,43.4,40.1,30.14,WNW,290,0.0,0.0,88,0.00,,,0.00,WeatherCatV1.15B25,2013-05-27 07:21:00,
2013-05-27 03:26:00,43.6,40.6,30.14,WNW,290,0.0,0.0,89,0.00,,,0.00,WeatherCatV1.15B25,2013-05-27 07:26:00,
2013-05-27 03:31:00,43.6,40.6,30.14,WNW,290,0.0,0.0,89,0.00,,,0.00,WeatherCatV1.15B25,2013-05-27 07:31:00,
2013-05-27 03:36:00,43.6,40.6,30.14,WNW,290,0.0,0.0,89,0.00,,,0.00,WeatherCatV1.15B25,2013-05-27 07:36:00,
2013-05-27 03:41:00,43.5,40.2,30.14,WNW,290,0.0,0.0,88,0.00,,,0.00,WeatherCatV1.15B25,2013-05-27 07:41:00,
2013-05-27 03:46:00,43.6,40.0,30.14,WNW,290,0.0,0.0,87,0.00,,,0.00,WeatherCatV1.15B25,2013-05-27 07:46:00,
2013-05-27 03:51:00,43.6,40.0,30.14,WNW,290,0.0,0.0,87,0.00,,,0.00,WeatherCatV1.15B25,2013-05-27 07:51:00,
2013-05-27 03:56:00,43.6,40.0,30.14,WNW,290,0.0,0.0,87,0.00,,,0.00,WeatherCatV1.15B25,2013-05-27 07:56:00,
2013-05-27 04:01:00,43.6,40.0,30.14,WNW,290,0.0,0.0,87,0.00,,,0.00,WeatherCatV1.15B25,2013-05-27 08:01:00,
2013-05-27 04:06:00,43.6,40.0,30.14,WNW,290,0.0,0.0,87,0.00,,,0.00,WeatherCatV1.15B25,2013-05-27 08:06:00,
2013-05-27 04:11:00,43.6,39.7,30.14,WNW,290,0.0,0.0,86,0.00,,,0.00,WeatherCatV1.15B25,2013-05-27 08:11:00,
2013-05-27 04:16:00,43.5,39.6,30.14,WNW,290,0.0,0.0,86,0.00,,,0.00,WeatherCatV1.15B25,2013-05-27 08:16:00,
2013-05-27 04:21:00,43.3,39.7,30.14,WNW,290,0.0,0.0,87,0.00,,,0.00,WeatherCatV1.15B25,2013-05-27 08:21:00,
2013-05-27 04:26:00,43.3,39.4,30.14,WNW,290,0.0,0.0,86,0.00,,,0.00,WeatherCatV1.15B25,2013-05-27 08:26:00,
2013-05-27 04:31:00,43.2,39.3,30.15,WNW,290,0.0,0.0,86,0.00,,,0.00,WeatherCatV1.15B25,2013-05-27 08:31:00,
2013-05-27 04:36:00,43.1,39.5,30.14,WNW,290,0.0,0.0,87,0.00,,,0.00,WeatherCatV1.15B25,2013-05-27 08:36:00,
2013-05-27 04:41:00,43.1,39.2,30.14,WNW,290,0.0,0.0,86,0.00,,,0.00,WeatherCatV1.15B25,2013-05-27 08:41:00,
2013-05-27 04:46:00,43.1,39.2,30.15,NNE,30,0.0,2.0,86,0.00,,,0.00,WeatherCatV1.15B25,2013-05-27 08:46:00,
2013-05-27 04:51:00,43.1,39.5,30.14,NNE,30,0.0,0.0,87,0.00,,,0.00,WeatherCatV1.15B25,2013-05-27 08:51:00,
2013-05-27 04:56:00,43.1,39.5,30.15,NNE,30,0.0,0.0,87,0.00,,,0.00,WeatherCatV1.15B25,2013-05-27 08:56:00,
2013-05-27 05:01:00,43.0,39.4,30.15,NNE,30,0.0,0.0,87,0.00,,,0.00,WeatherCatV1.15B25,2013-05-27 09:01:00,
2013-05-27 05:06:00,42.9,39.3,30.15,NNE,30,0.0,0.0,87,0.00,,,0.00,WeatherCatV1.15B25,2013-05-27 09:06:00,
2013-05-27 05:11:00,42.7,39.1,30.15,NNE,30,0.0,0.0,87,0.00,,,0.00,WeatherCatV1.15B25,2013-05-27 09:11:00,
2013-05-27 05:16:00,42.5,38.9,30.15,NNE,30,0.0,0.0,87,0.00,,,0.00,WeatherCatV1.15B25,2013-05-27 09:16:00,
2013-05-27 05:21:00,42.2,38.6,30.15,NNE,30,0.0,0.0,87,0.00,,,0.00,WeatherCatV1.15B25,2013-05-27 09:21:00,
2013-05-27 05:26:00,42.0,38.7,30.15,NNE,30,0.0,0.0,88,0.00,,,0.00,WeatherCatV1.15B25,2013-05-27 09:26:00,
2013-05-27 05:31:00,41.9,38.6,30.15,NNE,30,0.0,0.0,88,0.00,,,0.00,WeatherCatV1.15B25,2013-05-27 09:31:00,
2013-05-27 05:36:00,41.8,38.8,30.15,NNE,30,0.0,0.0,89,0.00,,,0.00,WeatherCatV1.15B25,2013-05-27 09:36:00,
2013-05-27 05:41:00,41.7,38.7,30.15,NNE,30,0.0,0.0,89,0.00,,,0.00,WeatherCatV1.15B25,2013-05-27 09:41:00,
2013-05-27 05:46:00,41.6,38.6,30.15,NNE,30,0.0,0.0,89,0.00,,,0.00,WeatherCatV1.15B25,2013-05-27 09:46:00,
2013-05-27 05:51:00,41.7,38.7,30.15,NNE,30,0.0,0.0,89,0.00,,,0.00,WeatherCatV1.15B25,2013-05-27 09:51:00,
2013-05-27 05:56:00,41.7,38.7,30.15,NNE,30,0.0,0.0,89,0.00,,,0.00,WeatherCatV1.15B25,2013-05-27 09:56:00,
2013-05-27 06:01:00,41.8,38.8,30.16,NNE,30,0.0,0.0,89,0.00,,,0.00,WeatherCatV1.15B25,2013-05-27 10:01:00,
2013-05-27 06:06:00,41.7,38.7,30.16,NNE,30,0.0,0.0,89,0.00,,,0.00,WeatherCatV1.15B25,2013-05-27 10:06:00,
2013-05-27 06:11:00,41.5,38.8,30.16,NNE,30,0.0,0.0,90,0.00,,,0.00,WeatherCatV1.15B25,2013-05-27 10:11:00,
2013-05-27 06:16:00,41.6,38.9,30.16,NNE,30,0.0,0.0,90,0.00,,,0.00,WeatherCatV1.15B25,2013-05-27 10:16:00,
2013-05-27 06:21:00,41.8,39.1,30.17,NNE,30,0.0,0.0,90,0.00,,,0.00,WeatherCatV1.15B25,2013-05-27 10:21:00,
2013-05-27 06:26:00,42.0,39.3,30.17,NNE,30,0.0,0.0,90,0.00,,,0.00,WeatherCatV1.15B25,2013-05-27 10:26:00,
2013-05-27 06:31:00,42.4,39.7,30.17,NNE,30,0.0,0.0,90,0.00,,,0.00,WeatherCatV1.15B25,2013-05-27 10:31:00,
2013-05-27 06:36:00,42.8,40.1,30.17,NNE,30,0.0,0.0,90,0.00,,,0.00,WeatherCatV1.15B25,2013-05-27 10:36:00,
2013-05-27 06:41:00,43.1,40.1,30.17,NNE,30,0.0,0.0,89,0.00,,,0.00,WeatherCatV1.15B25,2013-05-27 10:41:00,
2013-05-27 06:46:00,43.3,40.3,30.17,NNE,30,0.0,0.0,89,0.00,,,0.00,WeatherCatV1.15B25,2013-05-27 10:46:00,
2013-05-27 06:51:00,43.4,40.4,30.17,NNE,30,0.0,0.0,89,0.00,,,0.00,WeatherCatV1.15B25,2013-05-27 10:51:00,
2013-05-27 06:56:00,43.7,40.7,30.17,NNE,30,0.0,0.0,89,0.00,,,0.00,WeatherCatV1.15B25,2013-05-27 10:56:00,
2013-05-27 07:01:00,44.0,41.0,30.17,NNE,30,0.0,0.0,89,0.00,,,0.00,WeatherCatV1.15B25,2013-05-27 11:01:00,
2013-05-27 07:06:00,44.3,41.3,30.17,NNE,30,0.0,0.0,89,0.00,,,0.00,WeatherCatV1.15B25,2013-05-27 11:06:00,
2013-05-27 07:11:00,44.6,41.3,30.17,NNE,30,0.0,0.0,88,0.00,,,0.00,WeatherCatV1.15B25,2013-05-27 11:11:00,
2013-05-27 07:16:00,45.0,41.7,30.17,NNE,30,0.0,0.0,88,0.00,,,0.00,WeatherCatV1.15B25,2013-05-27 11:16:00,
2013-05-27 07:21:00,45.6,41.7,30.17,NNE,30,0.0,0.0,86,0.00,,,0.00,WeatherCatV1.15B25,2013-05-27 11:21:00,
2013-05-27 07:26:00,46.0,42.0,30.17,NNE,30,0.0,0.0,86,0.00,,,0.00,WeatherCatV1.15B25,2013-05-27 11:26:00,
2013-05-27 07:31:00,46.5,42.2,30.17,NNE,30,0.0,0.0,85,0.00,,,0.00,WeatherCatV1.15B25,2013-05-27 11:31:00,
2013-05-27 07:36:00,46.9,42.3,30.17,NNE,30,0.0,0.0,84,0.00,,,0.00,WeatherCatV1.15B25,2013-05-27 11:36:00,
2013-05-27 07:41:00,47.5,42.0,30.17,NNE,30,0.0,0.0,81,0.00,,,0.00,WeatherCatV1.15B25,2013-05-27 11:41:00,
2013-05-27 07:46:00,48.1,42.2,30.18,NNE,29,0.0,0.0,80,0.00,,,0.00,WeatherCatV1.15B25,2013-05-27 11:46:00,
2013-05-27 07:51:00,48.8,41.9,30.18,NNE,33,0.0,0.0,77,0.00,,,0.00,WeatherCatV1.15B25,2013-05-27 11:51:00,
2013-05-27 07:56:00,49.4,43.5,30.18,NE,40,2.0,2.0,80,0.00,,,0.00,WeatherCatV1.15B25,2013-05-27 11:56:00,
2013-05-27 08:01:00,49.6,42.7,30.18,NE,42,1.0,1.0,77,0.00,,,0.00,WeatherCatV1.15B25,2013-05-27 12:01:00,
2013-05-27 08:06:00,50.3,42.3,30.18,NW,315,0.0,0.0,74,0.00,,,0.00,WeatherCatV1.15B25,2013-05-27 12:06:00,
2013-05-27 08:11:00,51.0,42.7,30.18,WNW,301,0.0,0.0,73,0.00,,,0.00,WeatherCatV1.15B25,2013-05-27 12:11:00,
2013-05-27 08:16:00,51.5,43.5,30.18,West,261,0.0,2.0,74,0.00,,,0.00,WeatherCatV1.15B25,2013-05-27 12:16:00,
2013-05-27 08:21:00,52.2,44.2,30.18,West,261,0.0,0.0,74,0.00,,,0.00,WeatherCatV1.15B25,2013-05-27 12:21:00,
2013-05-27 08:26:00,53.0,43.5,30.18,West,265,1.0,1.0,70,0.00,,,0.00,WeatherCatV1.15B25,2013-05-27 12:26:00,
2013-05-27 08:31:00,53.6,44.8,30.18,West,263,0.0,1.0,72,0.00,,,0.00,WeatherCatV1.15B25,2013-05-27 12:31:00,
2013-05-27 08:36:00,54.2,43.5,30.18,NW,313,0.0,2.0,67,0.00,,,0.00,WeatherCatV1.15B25,2013-05-27 12:36:00,
2013-05-27 08:41:00,54.9,45.3,30.18,NW,313,0.0,0.0,70,0.00,,,0.00,WeatherCatV1.15B25,2013-05-27 12:41:00,
2013-05-27 08:46:00,55.4,43.8,30.18,NNE,22,0.0,1.0,65,0.00,,,0.00,WeatherCatV1.15B25,2013-05-27 12:46:00,
2013-05-27 08:51:00,55.9,45.1,30.18,NE,44,0.0,1.0,67,0.00,,,0.00,WeatherCatV1.15B25,2013-05-27 12:51:00,
2013-05-27 08:56:00,56.1,44.9,30.18,NNE,24,1.0,1.0,66,0.00,,,0.00,WeatherCatV1.15B25,2013-05-27 12:56:00,
2013-05-27 09:01:00,56.7,44.7,30.18,WNW,298,0.0,3.0,64,0.00,,,0.00,WeatherCatV1.15B25,2013-05-27 13:01:00,
2013-05-27 09:06:00,57.3,44.8,30.18,North,355,1.0,2.0,63,0.00,,,0.00,WeatherCatV1.15B25,2013-05-27 13:06:00,
2013-05-27 09:11:00,58.0,46.3,30.18,SW,215,2.0,2.0,65,0.00,,,0.00,WeatherCatV1.15B25,2013-05-27 13:11:00,
2013-05-27 09:16:00,58.6,46.5,30.18,SW,234,1.0,2.0,64,0.00,,,0.00,WeatherCatV1.15B25,2013-05-27 13:16:00,
2013-05-27 09:21:00,59.2,46.2,30.18,NNW,348,0.0,0.0,62,0.00,,,0.00,WeatherCatV1.15B25,2013-05-27 13:21:00,
2013-05-27 09:26:00,59.1,47.3,30.18,SW,231,0.0,0.0,65,0.00,,,0.00,WeatherCatV1.15B25,2013-05-27 13:26:00,
2013-05-27 09:31:00,59.4,45.9,30.17,NW,311,0.0,4.0,61,0.00,,,0.00,WeatherCatV1.15B25,2013-05-27 13:31:00,
2013-05-27 09:36:00,60.0,48.2,30.17,NW,318,3.0,3.0,65,0.00,,,0.00,WeatherCatV1.15B25,2013-05-27 13:36:00,
2013-05-27 09:41:00,60.5,47.8,30.17,ENE,60,1.0,2.0,63,0.00,,,0.00,WeatherCatV1.15B25,2013-05-27 13:41:00,
2013-05-27 09:46:00,60.6,45.7,30.17,NW,321,0.0,1.0,58,0.00,,,0.00,WeatherCatV1.15B25,2013-05-27 13:46:00,
2013-05-27 09:51:00,61.0,46.6,30.17,North,5,0.0,4.0,59,0.00,,,0.00,WeatherCatV1.15B25,2013-05-27 13:51:00,
2013-05-27 09:56:00,61.7,47.7,30.17,NW,309,0.0,0.0,60,0.00,,,0.00,WeatherCatV1.15B25,2013-05-27 13:56:00,
2013-05-27 10:01:00,62.1,48.9,30.17,NW,309,0.0,1.0,62,0.00,,,0.00,WeatherCatV1.15B25,2013-05-27 14:01:00,
2013-05-27 10:06:00,62.7,47.7,30.17,NNW,331,2.0,2.0,58,0.00,,,0.00,WeatherCatV1.15B25,2013-05-27 14:06:00,
2013-05-27 10:11:00,62.9,46.0,30.17,NE,54,0.0,3.0,54,0.00,,,0.00,WeatherCatV1.15B25,2013-05-27 14:11:00,
2013-05-27 10:16:00,63.4,46.5,30.17,South,182,1.0,3.0,54,0.00,,,0.00,WeatherCatV1.15B25,2013-05-27 14:16:00,
2013-05-27 10:21:00,64.0,45.5,30.17,North,355,0.0,1.0,51,0.00,,,0.00,WeatherCatV1.15B25,2013-05-27 14:21:00,
2013-05-27 10:26:00,63.9,47.9,30.17,NNW,338,1.0,3.0,56,0.00,,,0.00,WeatherCatV1.15B25,2013-05-27 14:26:00,
2013-05-27 10:31:00,64.3,48.7,30.17,WSW,244,0.0,4.0,57,0.00,,,0.00,WeatherCatV1.15B25,2013-05-27 14:31:00,
2013-05-27 10:36:00,64.5,44.4,30.17,West,274,0.0,3.0,48,0.00,,,0.00,WeatherCatV1.15B25,2013-05-27 14:36:00,
2013-05-27 10:41:00,64.9,47.4,30.17,WNW,302,3.0,4.0,53,0.00,,,0.00,WeatherCatV1.15B25,2013-05-27 14:41:00,
2013-05-27 10:46:00,65.2,44.5,30.16,South,175,1.0,4.0,47,0.00,,,0.00,WeatherCatV1.15B25,2013-05-27 14:46:00,
2013-05-27 10:51:00,65.4,47.3,30.16,NE,48,0.0,4.0,52,0.00,,,0.00,WeatherCatV1.15B25,2013-05-27 14:51:00,
2013-05-27 10:56:00,65.4,47.8,30.16,ESE,113,1.0,3.0,53,0.00,,,0.00,WeatherCatV1.15B25,2013-05-27 14:56:00,
2013-05-27 11:01:00,65.6,44.8,30.16,NNW,332,2.0,5.0,47,0.00,,,0.00,WeatherCatV1.15B25,2013-05-27 15:01:00,
2013-05-27 11:06:00,65.9,45.6,30.16,West,281,4.0,5.0,48,0.00,,,0.00,WeatherCatV1.15B25,2013-05-27 15:06:00,
2013-05-27 11:11:00,66.4,47.2,30.16,ENE,60,0.0,2.0,50,0.00,,,0.00,WeatherCatV1.15B25,2013-05-27 15:11:00,
2013-05-27 11:16:00,66.7,48.0,30.16,NW,313,4.0,4.0,51,0.00,,,0.00,WeatherCatV1.15B25,2013-05-27 15:16:00,
2013-05-27 11:21:00,66.1,44.7,30.16,NNE,33,3.0,8.0,46,0.00,,,0.00,WeatherCatV1.15B25,2013-05-27 15:21:00,
2013-05-27 11:26:00,66.3,41.9,30.16,NNW,338,2.0,6.0,41,0.00,,,0.00,WeatherCatV1.15B25,2013-05-27 15:26:00,
2013-05-27 11:31:00,66.8,43.6,30.16,NW,306,1.0,7.0,43,0.00,,,0.00,WeatherCatV1.15B25,2013-05-27 15:31:00,
2013-05-27 11:36:00,67.0,44.4,30.16,NW,317,1.0,6.0,44,0.00,,,0.00,WeatherCatV1.15B25,2013-05-27 15:36:00,
2013-05-27 11:41:00,67.0,41.9,30.16,NNW,346,1.0,3.0,40,0.00,,,0.00,WeatherCatV1.15B25,2013-05-27 15:41:00,
2013-05-27 11:46:00,67.2,42.7,30.15,SW,219,5.0,7.0,41,0.00,,,0.00,WeatherCatV1.15B25,2013-05-27 15:46:00,
2013-05-27 11:51:00,67.2,43.3,30.15,North,355,3.0,5.0,42,0.00,,,0.00,WeatherCatV1.15B25,2013-05-27 15:51:00,
2013-05-27 11:56:00,67.2,45.7,30.15,ENE,69,1.0,3.0,46,0.00,,,0.00,WeatherCatV1.15B25,2013-05-27 15:56:00,
2013-05-27 12:01:00,67.7,46.2,30.15,WNW,300,3.0,3.0,46,0.00,,,0.00,WeatherCatV1.15B25,2013-05-27 16:01:00,
2013-05-27 12:06:00,68.5,46.9,30.14,West,259,3.0,8.0,46,0.00,,,0.00,WeatherCatV1.15B25,2013-05-27 16:06:00,
2013-05-27 12:11:00,68.4,42.5,30.14,WNW,284,1.0,4.0,39,0.00,,,0.00,WeatherCatV1.15B25,2013-05-27 16:11:00,
2013-05-27 12:16:00,68.1,42.2,30.14,NNW,331,3.0,7.0,39,0.00,,,0.00,WeatherCatV1.15B25,2013-05-27 16:16:00,
2013-05-27 12:21:00,67.7,43.1,30.15,NNE,28,3.0,6.0,41,0.00,,,0.00,WeatherCatV1.15B25,2013-05-27 16:21:00,
2013-05-27 12:26:00,67.9,47.5,30.14,WSW,250,1.0,3.0,48,0.00,,,0.00,WeatherCatV1.15B25,2013-05-27 16:26:00,
2013-05-27 12:31:00,67.9,44.0,30.14,NNW,344,2.0,6.0,42,0.00,,,0.00,WeatherCatV1.15B25,2013-05-27 16:31:00,
2013-05-27 12:36:00,68.2,46.6,30.14,North,355,3.0,7.0,46,0.00,,,0.00,WeatherCatV1.15B25,2013-05-27 16:36:00,
2013-05-27 12:41:00,68.1,43.5,30.14,NNW,335,2.0,4.0,41,0.00,,,0.00,WeatherCatV1.15B25,2013-05-27 16:41:00,
2013-05-27 12:46:00,68.2,42.9,30.13,South,172,1.0,6.0,40,0.00,,,0.00,WeatherCatV1.15B25,2013-05-27 16:46:00,
2013-05-27 12:51:00,68.8,44.8,30.13,NNW,332,0.0,5.0,42,0.00,,,0.00,WeatherCatV1.15B25,2013-05-27 16:51:00,
2013-05-27 12:56:00,68.9,42.2,30.13,South,176,6.0,7.0,38,0.00,,,0.00,WeatherCatV1.15B25,2013-05-27 16:56:00,
2013-05-27 13:01:00,69.3,42.6,30.13,NW,304,2.0,7.0,38,0.00,,,0.00,WeatherCatV1.15B25,2013-05-27 17:01:00,
2013-05-27 13:06:00,69.5,44.8,30.13,ENE,67,1.0,4.0,41,0.00,,,0.00,WeatherCatV1.15B25,2013-05-27 17:06:00,
2013-05-27 13:11:00,69.3,45.8,30.13,NW,304,3.0,4.0,43,0.00,,,0.00,WeatherCatV1.15B25,2013-05-27 17:11:00,
2013-05-27 13:16:00,69.3,47.6,30.13,NNW,335,3.0,8.0,46,0.00,,,0.00,WeatherCatV1.15B25,2013-05-27 17:16:00,
2013-05-27 13:21:00,69.1,46.3,30.13,WSW,257,0.0,5.0,44,0.00,,,0.00,WeatherCatV1.15B25,2013-05-27 17:21:00,
2013-05-27 13:26:00,69.6,44.2,30.12,SW,236,2.0,4.0,40,0.00,,,0.00,WeatherCatV1.15B25,2013-05-27 17:26:00,
2013-05-27 13:31:00,69.7,42.3,30.12,WSW,252,2.0,4.0,37,0.00,,,0.00,WeatherCatV1.15B25,2013-05-27 17:31:00,
2013-05-27 13:36:00,69.8,48.6,30.12,WNW,290,1.0,2.0,47,0.00,,,0.00,WeatherCatV1.15B25,2013-05-27 17:36:00,
2013-05-27 13:41:00,70.0,45.8,30.12,South,182,1.0,7.0,42,0.00,,,0.00,WeatherCatV1.15B25,2013-05-27 17:41:00,
2013-05-27 13:46:00,69.8,43.0,30.12,NE,47,1.0,6.0,38,0.00,,,0.00,WeatherCatV1.15B25,2013-05-27 17:46:00,
2013-05-27 13:51:00,69.3,43.3,30.11,North,355,3.0,3.0,39,0.00,,,0.00,WeatherCatV1.15B25,2013-05-27 17:51:00,
2013-05-27 13:56:00,70.0,48.8,30.11,ENE,60,0.0,7.0,47,0.00,,,0.00,WeatherCatV1.15B25,2013-05-27 17:56:00,
2013-05-27 14:01:00,70.3,41.3,30.11,WNW,303,2.0,5.0,35,0.00,,,0.00,WeatherCatV1.15B25,2013-05-27 18:01:00,
2013-05-27 14:06:00,70.3,47.9,30.11,NNW,327,2.0,3.0,45,0.00,,,0.00,WeatherCatV1.15B25,2013-05-27 18:06:00,
2013-05-27 14:11:00,70.1,44.0,30.11,NW,304,2.0,2.0,39,0.00,,,0.00,WeatherCatV1.15B25,2013-05-27 18:11:00,
2013-05-27 14:16:00,69.9,45.1,30.11,NNW,329,2.0,5.0,41,0.00,,,0.00,WeatherCatV1.15B25,2013-05-27 18:16:00,
2013-05-27 14:21:00,69.9,45.8,30.11,West,273,5.0,11.0,42,0.00,,,0.00,WeatherCatV1.15B25,2013-05-27 18:21:00,
2013-05-27 14:26:00,70.3,44.2,30.10,WNW,302,1.0,5.0,39,0.00,,,0.00,WeatherCatV1.15B25,2013-05-27 18:26:00,
2013-05-27 14:31:00,70.3,46.7,30.10,NW,322,0.0,2.0,43,0.00,,,0.00,WeatherCatV1.15B25,2013-05-27 18:31:00,
2013-05-27 14:36:00,70.6,47.0,30.10,South,190,2.0,7.0,43,0.00,,,0.00,WeatherCatV1.15B25,2013-05-27 18:36:00,
2013-05-27 14:41:00,70.7,42.4,30.10,WSW,256,1.0,4.0,36,0.00,,,0.00,WeatherCatV1.15B25,2013-05-27 18:41:00,
2013-05-27 14:46:00,71.0,48.0,30.10,North,355,1.0,5.0,44,0.00,,,0.00,WeatherCatV1.15B25,2013-05-27 18:46:00,
2013-05-27 14:51:00,71.0,45.5,30.10,West,273,0.0,8.0,40,0.00,,,0.00,WeatherCatV1.15B25,2013-05-27 18:51:00,
2013-05-27 14:56:00,71.6,49.7,30.10,South,187,0.0,2.0,46,0.00,,,0.00,WeatherCatV1.15B25,2013-05-27 18:56:00,
2013-05-27 15:01:00,71.0,42.7,30.09,West,271,3.0,3.0,36,0.00,,,0.00,WeatherCatV1.15B25,2013-05-27 19:01:00,
2013-05-27 15:06:00,71.3,48.2,30.09,West,265,1.0,2.0,44,0.00,,,0.00,WeatherCatV1.15B25,2013-05-27 19:06:00,
2013-05-27 15:11:00,71.5,47.2,30.09,WSW,250,3.0,3.0,42,0.00,,,0.00,WeatherCatV1.15B25,2013-05-27 19:11:00,
2013-05-27 15:16:00,71.5,48.4,30.09,NNW,333,0.0,3.0,44,0.00,,,0.00,WeatherCatV1.15B25,2013-05-27 19:16:00,
2013-05-27 15:21:00,71.1,44.2,30.09,WSW,251,1.0,4.0,38,0.00,,,0.00,WeatherCatV1.15B25,2013-05-27 19:21:00,
2013-05-27 15:26:00,70.9,47.3,30.09,West,269,1.0,5.0,43,0.00,,,0.00,WeatherCatV1.15B25,2013-05-27 19:26:00,
2013-05-27 15:31:00,70.8,44.6,30.08,WSW,254,1.0,2.0,39,0.00,,,0.00,WeatherCatV1.15B25,2013-05-27 19:31:00,
2013-05-27 15:36:00,70.8,44.6,30.08,SSW,196,1.0,4.0,39,0.00,,,0.00,WeatherCatV1.15B25,2013-05-27 19:36:00,
2013-05-27 15:41:00,71.1,46.2,30.08,NNW,332,1.0,7.0,41,0.00,,,0.00,WeatherCatV1.15B25,2013-05-27 19:41:00,
2013-05-27 15:46:00,71.4,48.3,30.08,NE,49,0.0,2.0,44,0.00,,,0.00,WeatherCatV1.15B25,2013-05-27 19:46:00,
2013-05-27 15:51:00,71.2,42.9,30.08,SSW,212,0.0,2.0,36,0.00,,,0.00,WeatherCatV1.15B25,2013-05-27 19:51:00,
2013-05-27 15:56:00,71.4,47.7,30.08,NNW,348,2.0,2.0,43,0.00,,,0.00,WeatherCatV1.15B25,2013-05-27 19:56:00,
2013-05-27 16:01:00,71.3,43.0,30.08,North,355,1.0,2.0,36,0.00,,,0.00,WeatherCatV1.15B25,2013-05-27 20:01:00,
2013-05-27 16:06:00,71.1,44.9,30.08,NW,315,1.0,4.0,39,0.00,,,0.00,WeatherCatV1.15B25,2013-05-27 20:06:00,
2013-05-27 16:11:00,71.2,47.5,30.08,WSW,240,0.0,6.0,43,0.00,,,0.00,WeatherCatV1.15B25,2013-05-27 20:11:00,
2013-05-27 16:16:00,70.9,47.3,30.08,NW,320,2.0,3.0,43,0.00,,,0.00,WeatherCatV1.15B25,2013-05-27 20:16:00,
2013-05-27 16:22:00,70.8,45.3,30.08,NE,45,2.0,2.0,40,0.00,,,0.00,WeatherCatV1.15B25,2013-05-27 20:22:00,
2013-05-27 16:27:00,70.7,43.8,30.08,ENE,78,2.0,4.0,38,0.00,,,0.00,WeatherCatV1.15B25,2013-05-27 20:27:00,
2013-05-27 16:32:00,71.0,44.8,30.07,NE,41,3.0,3.0,39,0.00,,,0.00,WeatherCatV1.15B25,2013-05-27 20:32:00,
2013-05-27 16:36:00,70.8,44.6,30.07,WNW,289,0.0,2.0,39,0.00,,,0.00,WeatherCatV1.15B25,2013-05-27 20:36:00,
2013-05-27 16:42:00,70.6,45.7,30.07,WNW,303,1.0,8.0,41,0.00,,,0.00,WeatherCatV1.15B25,2013-05-27 20:42:00,
2013-05-27 16:47:00,70.7,42.4,30.07,WNW,298,1.0,5.0,36,0.00,,,0.00,WeatherCatV1.15B25,2013-05-27 20:47:00,
2013-05-27 16:52:00,71.0,46.1,30.07,NNW,328,0.0,4.0,41,0.00,,,0.00,WeatherCatV1.15B25,2013-05-27 20:52:00,
2013-05-27 16:57:00,70.5,48.7,30.07,North,10,3.0,4.0,46,0.00,,,0.00,WeatherCatV1.15B25,2013-05-27 20:57:00,
2013-05-27 17:02:00,70.7,46.5,30.07,West,281,1.0,3.0,42,0.00,,,0.00,WeatherCatV1.15B25,2013-05-27 21:02:00,
2013-05-27 17:07:00,70.5,43.7,30.07,East,91,1.0,3.0,38,0.00,,,0.00,WeatherCatV1.15B25,2013-05-27 21:07:00,
2013-05-27 17:12:00,70.2,42.7,30.07,North,355,0.0,1.0,37,0.00,,,0.00,WeatherCatV1.15B25,2013-05-27 21:12:00,
2013-05-27 17:17:00,70.2,43.4,30.07,WNW,286,0.0,4.0,38,0.00,,,0.00,WeatherCatV1.15B25,2013-05-27 21:17:00,
2013-05-27 17:22:00,70.5,42.2,30.07,NNW,348,0.0,1.0,36,0.00,,,0.00,WeatherCatV1.15B25,2013-05-27 21:22:00,
2013-05-27 17:27:00,69.9,43.8,30.07,West,275,0.0,4.0,39,0.00,,,0.00,WeatherCatV1.15B25,2013-05-27 21:27:00,
2013-05-27 17:32:00,69.7,42.3,30.07,West,269,1.0,4.0,37,0.00,,,0.00,WeatherCatV1.15B25,2013-05-27 21:32:00,
2013-05-27 17:37:00,69.5,41.4,30.07,NE,44,2.0,2.0,36,0.00,,,0.00,WeatherCatV1.15B25,2013-05-27 21:37:00,
2013-05-27 17:42:00,69.4,43.4,30.07,NNW,331,0.0,4.0,39,0.00,,,0.00,WeatherCatV1.15B25,2013-05-27 21:42:00,
2013-05-27 17:47:00,69.7,44.9,30.08,WNW,286,0.0,6.0,41,0.00,,,0.00,WeatherCatV1.15B25,2013-05-27 21:47:00,
2013-05-27 17:52:00,69.7,42.9,30.07,SW,216,0.0,6.0,38,0.00,,,0.00,WeatherCatV1.15B25,2013-05-27 21:52:00,
2013-05-27 17:57:00,69.6,44.8,30.08,WSW,244,1.0,3.0,41,0.00,,,0.00,WeatherCatV1.15B25,2013-05-27 21:57:00,
2013-05-27 18:02:00,69.7,41.5,30.07,SSW,205,2.0,3.0,36,0.00,,,0.00,WeatherCatV1.15B25,2013-05-27 22:02:00,
2013-05-27 18:07:00,69.8,41.6,30.07,SW,231,1.0,1.0,36,0.00,,,0.00,WeatherCatV1.15B25,2013-05-27 22:07:00,
2013-05-27 18:12:00,69.7,42.3,30.07,WNW,299,2.0,2.0,37,0.00,,,0.00,WeatherCatV1.15B25,2013-05-27 22:12:00,
2013-05-27 18:17:00,69.4,42.0,30.07,SW,229,0.0,4.0,37,0.00,,,0.00,WeatherCatV1.15B25,2013-05-27 22:17:00,
2013-05-27 18:22:00,69.6,42.2,30.07,WSW,237,0.0,0.0,37,0.00,,,0.00,WeatherCatV1.15B25,2013-05-27 22:22:00,
2013-05-27 18:27:00,69.6,42.2,30.07,West,267,4.0,5.0,37,0.00,,,0.00,WeatherCatV1.15B25,2013-05-27 22:27:00,
2013-05-27 18:32:00,69.0,44.9,30.07,WNW,288,0.0,7.0,42,0.00,,,0.00,WeatherCatV1.15B25,2013-05-27 22:32:00,
2013-05-27 18:37:00,68.7,43.4,30.07,WSW,256,0.0,3.0,40,0.00,,,0.00,WeatherCatV1.15B25,2013-05-27 22:37:00,
2013-05-27 18:42:00,68.4,43.1,30.07,WSW,243,0.0,2.0,40,0.00,,,0.00,WeatherCatV1.15B25,2013-05-27 22:42:00,
2013-05-27 18:47:00,68.4,43.1,30.07,NNW,329,0.0,3.0,40,0.00,,,0.00,WeatherCatV1.15B25,2013-05-27 22:47:00,
2013-05-27 18:52:00,68.4,42.5,30.07,NNW,329,0.0,0.0,39,0.00,,,0.00,WeatherCatV1.15B25,2013-05-27 22:52:00,
2013-05-27 18:57:00,68.2,43.6,30.08,SSW,208,0.0,1.0,41,0.00,,,0.00,WeatherCatV1.15B25,2013-05-27 22:57:00,
2013-05-27 19:02:00,67.3,45.8,30.08,SW,220,0.0,0.0,46,0.00,,,0.00,WeatherCatV1.15B25,2013-05-27 23:02:00,
2013-05-27 19:07:00,66.6,45.2,30.08,SW,233,1.0,2.0,46,0.00,,,0.00,WeatherCatV1.15B25,2013-05-27 23:07:00,
2013-05-27 19:12:00,65.9,45.1,30.08,SW,233,0.0,1.0,47,0.00,,,0.00,WeatherCatV1.15B25,2013-05-27 23:12:00,
2013-05-27 19:17:00,65.5,45.3,30.08,South,171,0.0,0.0,48,0.00,,,0.00,WeatherCatV1.15B25,2013-05-27 23:17:00,
2013-05-27 19:22:00,65.3,45.1,30.09,SSW,207,0.0,4.0,48,0.00,,,0.00,WeatherCatV1.15B25,2013-05-27 23:22:00,
2013-05-27 19:27:00,64.9,45.3,30.08,SSW,207,1.0,1.0,49,0.00,,,0.00,WeatherCatV1.15B25,2013-05-27 23:27:00,
2013-05-27 19:32:00,64.5,44.9,30.08,WSW,252,2.0,2.0,49,0.00,,,0.00,WeatherCatV1.15B25,2013-05-27 23:32:00,
2013-05-27 19:37:00,64.3,45.3,30.09,SSW,192,0.0,0.0,50,0.00,,,0.00,WeatherCatV1.15B25,2013-05-27 23:37:00,
2013-05-27 19:42:00,63.9,46.4,30.09,SSW,193,0.0,1.0,53,0.00,,,0.00,WeatherCatV1.15B25,2013-05-27 23:42:00,
2013-05-27 19:47:00,63.6,46.2,30.09,SW,224,0.0,2.0,53,0.00,,,0.00,WeatherCatV1.15B25,2013-05-27 23:47:00,
2013-05-27 19:52:00,63.2,46.8,30.09,WSW,257,0.0,0.0,55,0.00,,,0.00,WeatherCatV1.15B25,2013-05-27 23:52:00,
2013-05-27 19:57:00,62.5,47.1,30.09,WSW,257,0.0,0.0,57,0.00,,,0.00,WeatherCatV1.15B25,2013-05-27 23:57:00,
2013-05-27 20:02:00,61.9,47.4,30.09,WSW,257,0.0,1.0,59,0.00,,,0.00,WeatherCatV1.15B25,2013-05-28 00:02:00,
2013-05-27 20:07:00,61.4,47.4,30.09,WSW,257,0.0,0.0,60,0.00,,,0.00,WeatherCatV1.15B25,2013-05-28 00:07:00,
2013-05-27 20:12:00,61.0,47.0,30.09,ESE,107,2.0,2.0,60,0.00,,,0.00,WeatherCatV1.15B25,2013-05-28 00:12:00,
2013-05-27 20:17:00,60.7,46.7,30.09,ESE,107,0.0,1.0,60,0.00,,,0.00,WeatherCatV1.15B25,2013-05-28 00:17:00,
2013-05-27 20:22:00,60.5,46.5,30.09,SSE,160,0.0,0.0,60,0.00,,,0.00,WeatherCatV1.15B25,2013-05-28 00:22:00,
2013-05-27 20:27:00,60.1,46.6,30.09,SSE,160,0.0,0.0,61,0.00,,,0.00,WeatherCatV1.15B25,2013-05-28 00:27:00,
2013-05-27 20:32:00,59.9,46.4,30.09,SSE,160,0.0,1.0,61,0.00,,,0.00,WeatherCatV1.15B25,2013-05-28 00:32:00,
2013-05-27 20:37:00,59.6,46.6,30.09,SSE,160,0.0,1.0,62,0.00,,,0.00,WeatherCatV1.15B25,2013-05-28 00:37:00,
2013-05-27 20:42:00,59.3,46.3,30.09,SSE,160,0.0,0.0,62,0.00,,,0.00,WeatherCatV1.15B25,2013-05-28 00:42:00,
2013-05-27 20:47:00,58.9,45.9,30.10,SSE,160,0.0,0.0,62,0.00,,,0.00,WeatherCatV1.15B25,2013-05-28 00:47:00,
2013-05-27 20:52:00,58.7,46.1,30.10,SSE,160,0.0,1.0,63,0.00,,,0.00,WeatherCatV1.15B25,2013-05-28 00:52:00,
2013-05-27 20:57:00,58.2,46.9,30.10,SSE,160,0.0,0.0,66,0.00,,,0.00,WeatherCatV1.15B25,2013-05-28 00:57:00,
2013-05-27 21:02:00,57.9,47.0,30.10,SSE,160,0.0,1.0,67,0.00,,,0.00,WeatherCatV1.15B25,2013-05-28 01:02:00,
2013-05-27 21:07:00,57.6,47.9,30.10,SSE,160,0.0,1.0,70,0.00,,,0.00,WeatherCatV1.15B25,2013-05-28 01:07:00,
2013-05-27 21:12:00,57.3,46.8,30.10,SSE,160,0.0,1.0,68,0.00,,,0.00,WeatherCatV1.15B25,2013-05-28 01:12:00,
2013-05-27 21:17:00,57.2,45.9,30.10,SSE,160,1.0,1.0,66,0.00,,,0.00,WeatherCatV1.15B25,2013-05-28 01:17:00,
2013-05-27 21:22:00,57.0,45.8,30.10,SSE,160,1.0,1.0,66,0.00,,,0.00,WeatherCatV1.15B25,2013-05-28 01:22:00,
2013-05-27 21:27:00,56.8,46.4,30.10,SSE,160,0.0,0.0,68,0.00,,,0.00,WeatherCatV1.15B25,2013-05-28 01:27:00,
2013-05-27 21:32:00,56.6,46.2,30.10,SSE,160,0.0,1.0,68,0.00,,,0.00,WeatherCatV1.15B25,2013-05-28 01:32:00,
2013-05-27 21:37:00,56.4,46.4,30.10,SSE,160,0.0,0.0,69,0.00,,,0.00,WeatherCatV1.15B25,2013-05-28 01:37:00,
2013-05-27 21:42:00,56.1,46.8,30.11,SSE,160,0.0,0.0,71,0.00,,,0.00,WeatherCatV1.15B25,2013-05-28 01:42:00,
2013-05-27 21:47:00,55.7,46.4,30.11,SSE,160,0.0,0.0,71,0.00,,,0.00,WeatherCatV1.15B25,2013-05-28 01:47:00,
2013-05-27 21:52:00,55.5,46.6,30.11,SSE,160,0.0,1.0,72,0.00,,,0.00,WeatherCatV1.15B25,2013-05-28 01:52:00,
2013-05-27 21:57:00,55.2,46.0,30.11,SSE,160,0.0,0.0,71,0.00,,,0.00,WeatherCatV1.15B25,2013-05-28 01:57:00,
2013-05-27 22:02:00,54.8,45.9,30.11,SSE,160,0.0,0.0,72,0.00,,,0.00,WeatherCatV1.15B25,2013-05-28 02:02:00,
2013-05-27 22:07:00,54.2,46.1,30.12,SSE,160,1.0,1.0,74,0.00,,,0.00,WeatherCatV1.15B25,2013-05-28 02:07:00,
2013-05-27 22:12:00,53.6,46.2,30.12,SSE,160,1.0,2.0,76,0.00,,,0.00,WeatherCatV1.15B25,2013-05-28 02:12:00,
2013-05-27 22:17:00,53.7,46.3,30.12,SSE,160,0.0,0.0,76,0.00,,,0.00,WeatherCatV1.15B25,2013-05-28 02:17:00,
2013-05-27 22:22:00,53.7,46.3,30.12,SSE,160,0.0,0.0,76,0.00,,,0.00,WeatherCatV1.15B25,2013-05-28 02:22:00,
2013-05-27 22:27:00,53.3,46.3,30.12,SSE,160,0.0,0.0,77,0.00,,,0.00,WeatherCatV1.15B25,2013-05-28 02:27:00,
2013-05-27 22:32:00,53.0,46.0,30.12,SSE,160,0.0,0.0,77,0.00,,,0.00,WeatherCatV1.15B25,2013-05-28 02:32:00,
2013-05-27 22:37:00,52.6,45.9,30.12,SSE,160,0.0,0.0,78,0.00,,,0.00,WeatherCatV1.15B25,2013-05-28 02:37:00,
2013-05-27 22:42:00,52.2,45.9,30.12,SSE,160,0.0,0.0,79,0.00,,,0.00,WeatherCatV1.15B25,2013-05-28 02:42:00,
2013-05-27 22:47:00,52.2,46.2,30.12,SSE,160,0.0,0.0,80,0.00,,,0.00,WeatherCatV1.15B25,2013-05-28 02:47:00,
2013-05-27 22:52:00,51.9,45.9,30.12,SSE,160,0.0,0.0,80,0.00,,,0.00,WeatherCatV1.15B25,2013-05-28 02:52:00,
2013-05-27 22:57:00,51.6,46.0,30.13,SSE,160,0.0,0.0,81,0.00,,,0.00,WeatherCatV1.15B25,2013-05-28 02:57:00,
2013-05-27 23:02:00,51.5,45.9,30.13,SSE,160,0.0,0.0,81,0.00,,,0.00,WeatherCatV1.15B25,2013-05-28 03:02:00,
2013-05-27 23:07:00,51.5,45.9,30.13,SSE,160,0.0,0.0,81,0.00,,,0.00,WeatherCatV1.15B25,2013-05-28 03:07:00,
2013-05-27 23:12:00,50.9,46.2,30.13,SSE,160,0.0,0.0,84,0.00,,,0.00,WeatherCatV1.15B25,2013-05-28 03:12:00,
2013-05-27 23:17:00,50.4,46.1,30.13,SSE,160,0.0,0.0,85,0.00,,,0.00,WeatherCatV1.15B25,2013-05-28 03:17:00,
2013-05-27 23:22:00,49.9,45.6,30.13,SSE,160,0.0,0.0,85,0.00,,,0.00,WeatherCatV1.15B25,2013-05-28 03:22:00,
2013-05-27 23:27:00,49.6,45.6,30.13,SSE,160,0.0,0.0,86,0.00,,,0.00,WeatherCatV1.15B25,2013-05-28 03:27:00,
2013-05-27 23:32:00,49.4,45.7,30.13,SSE,160,0.0,0.0,87,0.00,,,0.00,WeatherCatV1.15B25,2013-05-28 03:32:00,
2013-05-27 23:37:00,49.3,45.6,30.14,SSE,160,0.0,0.0,87,0.00,,,0.00,WeatherCatV1.15B25,2013-05-28 03:37:00,
2013-05-27 23:42:00,49.2,45.5,30.14,SSE,160,0.0,0.0,87,0.00,,,0.00,WeatherCatV1.15B25,2013-05-28 03:42:00,
2013-05-27 23:47:00,49.0,45.6,30.14,SSE,160,0.0,0.0,88,0.00,,,0.00,WeatherCatV1.15B25,2013-05-28 03:47:00,
2013-05-27 23:52:00,49.0,45.6,30.14,SSE,160,0.0,0.0,88,0.00,,,0.00,WeatherCatV1.15B25,2013-05-28 03:52:00,
2013-05-27 23:57:00,49.2,45.8,30.14,SSE,160,0.0,0.0,88,0.00,,,0.00,WeatherCatV1.15B25,2013-05-28 03:57:00,